SL-3 DEB, 21126

Orbit data source: Space-Track

SL-3 DEB, 21126 is space debris in LEO originally from a launch on Fri, 28 Aug 1964 UTC launched from the Tyuratam Missile And Space Complex (TTMTR). Debris objects in space refer to the collection of defunct objects orbiting the Earth. Examples of debris include non-operational satellites, rocket bodies, and fragments generated from explosions, collisions, or faulty payload assembly.

Loading next visibility...
Identifier
21126, 1964-053C
Orbit
LEO
Country
Flag of CISCIS
Related business
Manufacturer
Unknown
Mission
Spacecraft
Bus & Motor
Unknown
Mass
Unknown
Launch date (UTC)
1964-08-28 (62 years ago)
Launch vehicle
Unknown
Launch site
Tyuratam Missile And Space Complex (TTMTR)
Object type
Payload
Rocket body
Debris
Shape & HBR
Unknown shape, 0.1 m
Radar Cross Section
Small (<0.1 m²)

Expand to show TLE details & history
Last TLE update: 14 hours ago

TLE from 14 hours ago
0 SL-3 DEB
1 21126U 64053C   26121.81758729  .00000695  00000-0  13362-3 0  9997
2 21126  65.0770 288.5618 0071329 250.3447 224.7260 14.69672677259132
Epoch: 2026-05-01T19:37Z
TLE epoch observation values (Epoch: 2026-05-01T19:37:19.541Z)
Latitude
55.7352°
Longitude
-88.23467°
Altitude
706.26 km
Speed
7.489 km/s
True Right ascension
04h 23m 21s
True Declination
55° 34' 26"
Sunlit
Object was in daylight at epoch
Visualization orbit readout
Latitude
Unknown
Longitude
Unknown
Altitude
Unknown
Speed
Unknown
Apparent Right ascension
Unknown
Apparent Declination
Unknown
Sunlit
N/A
Visualization observer readout
Local Sidereal Time
17:39:16
Azimuth
Unknown
Elevation
Unknown
Doppler factor
Unknown
Orbital elements
Apogee altitude
710.863 km
Perigee altitude
610.449 km
Semi-major axis
7,038.793 km
Eccentricity
0.00713
Inclination
65.077°
RAAN
288.5618°
Arg. of periapsis
250.3447°
True anomaly
224.15443°
Mean anomaly
224.726°
Eccentric anomaly
224.43985°
Mean motion
3.67533 °/min
Orbital period
97.95 mins
BSTAR
0.00013362
Loading maneuver chart data...
Computing Atmospheric mass density...
Loading historical data...
Loading historical data...
Loading historical data...
Loading historical data...
Loading historical data...
Loading historical data...
Loading historical data...
Other satellites on launch #53 in the year 1964 (1964-08-28 UTC)

Documentation

Showing up to 5 results
|